This is the latest recevied weather packets stored in our database for station/object N4QD-13. If no packets are shown the sender has not sent any weather packets the latest 10 day(s).
| Time | Temp. | Humidity | Pressure | Rain* | Wind** | Luminosity | Snow |
|---|---|---|---|---|---|---|---|
| 1777924748 | 23.33° C | 47% | 1011.8 hPa | 0 mm | - | 802 W/m² | - |
| 1777924444 | 22.78° C | 46% | 1012.2 hPa | 0 mm | - | 787 W/m² | - |
| 1777924141 | 22.78° C | 47% | 1012.4 hPa | 0 mm | - | 501 W/m² | - |
| 1777923837 | 22.22° C | 47% | 1012.1 hPa | 0 mm | - | 703 W/m² | - |
| 1777923533 | 22.78° C | 48% | 1012.4 hPa | 0 mm | - | 313 W/m² | - |
| 1777923230 | 22.22° C | 48% | 1012.3 hPa | 0 mm | - | 760 W/m² | - |
| 1777922929 | 22.22° C | 48% | 1012.6 hPa | 0 mm | - | 462 W/m² | - |
| 1777922626 | 21.67° C | 48% | 1012.6 hPa | 0 mm | - | 497 W/m² | - |
| 1777922324 | 21.67° C | 48% | 1012.5 hPa | 0 mm | - | 377 W/m² | - |
| 1777922022 | 21.67° C | 47% | 1012.9 hPa | 0 mm | - | 435 W/m² | - |
| 1777921717 | 21.67° C | 48% | 1013 hPa | 0 mm | - | 463 W/m² | - |
| 1777921413 | 21.67° C | 48% | 1012.9 hPa | 0 mm | - | 413 W/m² | - |
| 1777921110 | 21.67° C | 47% | 1012.9 hPa | 0 mm | - | 405 W/m² | - |
| 1777920807 | 21.67° C | 47% | 1012.9 hPa | 0 mm | - | 507 W/m² | - |
| 1777920503 | 21.67° C | 46% | 1012.8 hPa | 0 mm | - | 554 W/m² | - |
| 1777920199 | 21.67° C | 47% | 1013 hPa | 0 mm | - | 498 W/m² | - |
| 1777919895 | 22.22° C | 46% | 1012.9 hPa | 0 mm | - | 518 W/m² | - |
| 1777919593 | 22.22° C | 46% | 1013.3 hPa | 0 mm | - | 656 W/m² | - |
| 1777919290 | 22.78° C | 46% | 1013.2 hPa | 0 mm | - | 655 W/m² | - |
| 1777918988 | 22.22° C | 45% | 1013 hPa | 0 mm | - | 742 W/m² | - |
| 1777918685 | 22.78° C | 45% | 1013.5 hPa | 0 mm | - | 754 W/m² | - |
| 1777918382 | 22.22° C | 46% | 1013.1 hPa | 0 mm | - | 372 W/m² | - |
| 1777918081 | 22.78° C | 44% | 1013.3 hPa | 0 mm | - | 716 W/m² | - |
| 1777917779 | 22.78° C | 45% | 1013.4 hPa | 0 mm | - | 803 W/m² | - |
| 1777917476 | 22.78° C | 44% | 1013.2 hPa | 0 mm | - | 779 W/m² | - |
* Rain latest hour (hover to see other rain measurements)
** Current wind speed in m/s (hover to see current wind gust speed)